Temp
-6 -6 -6 -6 -6 -6 -6 -6 -6 -6 -6 -6 -6 -6 -6 -6 -6 -6 -6 -6 -6 -6 -6 -6 -6 -6 -6 -6 -7 -7 -7 -6 -6 -7 -7 -7 -7 -7 -7 -7 -7 -7
-6 -6 -6 -6 -6 -6 -6 -6 -6 -6 -6 -6 -6 -6 -6 -6 -6 -6 -6 -6 -6 -6 -6 -6 -6 -6 -6 -6 -6 -6 -7 -6 -6 -6 -7 -7 -7 -7 -7 -7 -7 -7
-6 -6 -6 -6 -6 -6 -6 -6 -6 -6 -6 -6 -7 -6 -6 -6 -6 -6 -5 -6 -6 -6 -6 -6 -6 -6 -6 -6 -6 -6 -6 -6 -6 -6 -6 -6 -7 -7 -7 -7 -7 -7
-6 -6 -6 -6 -6 -6 -6 -6 -6 -6 -6 -6 -7 -6 -6 -6 -6 -5 -5 -5 -5 -6 -6 -6 -6 -6 -6 -6 -6 -6 -6 -6 -6 -6 -6 -6 -6 -7 -7 -7 -7 -7
-6 -6 -6 -6 -6 -6 -6 -6 -6 -6 -6 -6 -6 -6 -6 -6 -6 -5 -5 -5 -5 -5 -6 -6 -6 -6 -6 -6 -6 -6 -6 -6 -6 -6 -6 -6 -6 -7 -7 -7 -7 -7
-6 -6 -6 -6 -6 -6 -6 -6 -6 -6 -6 -6 -6 -6 -6 -6 -6 -6 -6 -6 -5 -5 -5 -6 -6 -6 -6 -6 -6 -6 -6 -6 -6 -6 -6 -6 -6 -7 -7 -6 -7 -7
-6 -6 -6 -6 -6 -6 -6 -6 -6 -6 -6 -6 -6 -6 -6 -6 -6 -6 -6 -6 -6 -5 -5 -5 -5 -6 -6 -6 -6 -6 -6 -6 -6 -6 -6 -6 -6 -7 -7 -7 -7 -7
-5 -6 -6 -6 -6 -6 -6 -6 -6 -6 -6 -6 -6 -6 -6 -6 -6 -6 -6 -6 -6 -6 -6 -6 -5 -6 -6 -6 -6 -6 -6 -6 -6 -6 -6 -6 -6 -7 -7 -7 -7 -7
-5 -5 -6 -6 -6 -6 -6 -6 -6 -6 -6 -6 -6 -6 -6 -6 -6 -6 -6 -6 -6 -6 -6 -6 -6 -6 -6 -6 -6 -6 -6 -6 -6 -6 -6 -6 -6 -6 -6 -7 -7 -7
-5 -5 -6 -6 -6 -6 -6 -6 -6 -6 -6 -6 -6 -6 -6 -6 -6 -6 -6 -6 -6 -6 -6 -6 -6 -6 -6 -6 -6 -6 -6 -6 -6 -6 -6 -6 -6 -6 -6 -6 -6 -6
-6 -6 -6 -6 -6 -6 -6 -6 -6 -6 -6 -6 -6 -6 -6 -6 -6 -6 -6 -6 -6 -6 -6 -6 -6 -6 -6 -6 -6 -6 -6 -6 -6 -6 -6 -6 -6 -6 -6 -6 -6 -6
-6 -6 -6 -6 -6 -6 -6 -6 -6 -6 -6 -6 -6 -6 -6 -6 -6 -6 -6 -6 -6 -6 -6 -6 -6 -6 -6 -6 -6 -6 -6 -6 -6 -6 -6 -6 -6 -6 -5 -5 -5 -5
-6 -6 -6 -6 -6 -6 -6 -6 -6 -6 -6 -6 -6 -6 -6 -6 -6 -6 -6 -6 -6 -6 -6 -6 -6 -6 -6 -6 -6 -6 -6 -6 -6 -6 -6 -6 -6 -6 -6 -5 -5 -5
-6 -6 -6 -6 -6 -6 -6 -6 -6 -6 -7 -6 -6 -6 -6 -6 -7 -7 -7 -6 -6 -6 -6 -6 -6 -6 -6 -6 -6 -6 -6 -6 -6 -6 -6 -6 -6 -6 -6 -6 -6 -6
-7 -6 -6 -6 -6 -6 -6 -6 -6 -6 -7 -7 -7 -6 -6 -6 -6 -6 -7 -7 -7 -7 -6 -6 -6 -6 -6 -6 -6 -6 -6 -6 -6 -6 -6 -6 -6 -6 -6 -6 -6 -6
-6 -6 -6 -6 -6 -6 -6 -6 -6 -6 -6 -6 -7 -6 -6 -6 -6 -6 -6 -6 -7 -7 -7 -7 -6 -6 -6 -6 -6 -6 -6 -6 -6 -6 -6 -6 -6 -6 -6 -6 -6 -6
-6 -6 -6 -6 -6 -6 -6 -6 -6 -6 -6 -6 -6 -6 -6 -6 -6 -6 -6 -6 -6 -6 -7 -7 -7 -7 -6 -6 -6 -6 -6 -6 -6 -6 -6 -6 -6 -6 -6 -6 -6 -6
-6 -6 -6 -7 -6 -6 -6 -6 -6 -6 -6 -6 -6 -6 -6 -6 -6 -6 -6 -6 -6 -6 -6 -6 -7 -7 -7 -6 -6 -6 -7 -7 -7 -7 -7 -7 -7 -7 -7 -7 -7 -6
-6 -7 -7 -7 -6 -6 -6 -6 -6 -6 -6 -6 -6 -6 -6 -6 -6 -6 -6 -6 -6 -6 -6 -6 -6 -7 -7 -6 -6 -6 -6 -6 -6 -6 -6 -6 -6 -6 -6 -6 -6 -6
-7 -7 -7 -7 -6 -6 -6 -6 -6 -6 -6 -6 -6 -6 -6 -6 -6 -6 -6 -6 -6 -6 -6 -6 -6 -6 -6 -6 -6 -6 -6 -6 -6 -6 -6 -6 -6 -6 -6 -6 -6 -6
-7 -7 -7 -7 -6 -6 -6 -6 -6 -6 -6 -6 -6 -6 -6 -6 -6 -6 -6 -6 -6 -6 -6 -6 -6 -6 -6 -6 -6 -6 -6 -6 -6 -6 -6 -6 -6 -6 -6 -6 -6 -6
-7 -7 -7 -7 -7 -7 -7 -6 -6 -6 -6 -6 -6 -6 -6 -6 -6 -6 -6 -6 -6 -6 -6 -6 -6 -6 -6 -6 -6 -6 -6 -6 -6 -6 -6 -6 -6 -6 -6 -6 -6 -5
-7 -7 -7 -7 -7 -7 -7 -7 -6 -6 -6 -6 -6 -6 -6 -6 -6 -6 -7 -7 -6 -6 -6 -6 -6 -6 -6 -6 -6 -6 -6 -6 -6 -6 -6 -6 -6 -6 -6 -5 -5 -5
-7 -7 -7 -7 -7 -7 -7 -7 -7 -7 -6 -7 -7 -7 -7 -7 -7 -7 -7 -7 -6 -6 -6 -6 -6 -6 -6 -6 -7 -7 -7 -6 -6 -6 -6 -6 -6 -6 -6 -6 -6 -6
-7 -7 -7 -7 -7 -7 -7 -7 -7 -7 -7 -7 -7 -7 -8 -7 -7 -8 -8 -7 -7 -7 -7 -7 -7 -7 -7 -7 -7 -7 -7 -7 -6 -6 -6 -6 -6 -6 -6 -6 -6 -6
-8 -8 -8 -7 -7 -7 -7 -7 -7 -7 -7 -7 -8 -8 -8 -7 -7 -8 -8 -8 -7 -7 -7 -7 -7 -7 -7 -7 -7 -7 -7 -7 -7 -7 -7 -7 -6 -6 -6 -6 -6 -6
Height
5944 5945 5947 5948 5948 5949 5949 5950 5950 5950 5951 5952 5952 5953 5953 5954 5955 5957 5957 5958 5959 5961 5961 5961 5962 5962 5962 5962 5962 5963 5963 5963 5964 5964 5964 5965 5965 5965 5966 5966 5967 5967
5943 5944 5945 5946 5947 5948 5948 5949 5949 5950 5951 5951 5952 5952 5953 5954 5955 5956 5957 5958 5959 5960 5960 5961 5962 5962 5962 5962 5963 5963 5963 5964 5964 5964 5965 5965 5965 5965 5966 5966 5967 5967
5941 5943 5944 5945 5946 5947 5948 5948 5949 5950 5950 5951 5951 5952 5953 5953 5954 5955 5956 5957 5958 5959 5960 5961 5961 5962 5962 5962 5963 5963 5964 5964 5964 5964 5964 5965 5965 5965 5966 5966 5967 5967
5940 5941 5943 5944 5945 5946 5947 5948 5948 5949 5950 5950 5951 5952 5952 5953 5954 5955 5955 5956 5958 5958 5959 5960 5961 5962 5962 5963 5963 5963 5964 5964 5964 5964 5964 5965 5965 5965 5966 5966 5966 5967
5938 5940 5942 5943 5945 5946 5946 5947 5948 5948 5949 5950 5951 5952 5952 5953 5953 5954 5955 5956 5957 5958 5959 5960 5961 5962 5963 5963 5963 5964 5964 5965 5965 5965 5965 5965 5965 5965 5966 5966 5966 5967
5936 5938 5940 5942 5944 5945 5946 5947 5947 5948 5949 5950 5951 5951 5952 5952 5953 5954 5954 5955 5956 5957 5958 5960 5961 5962 5962 5963 5963 5964 5964 5965 5965 5965 5965 5965 5966 5966 5966 5966 5966 5967
5935 5936 5938 5940 5942 5944 5945 5946 5947 5948 5949 5949 5950 5951 5951 5952 5953 5953 5954 5955 5955 5956 5958 5959 5960 5961 5962 5962 5963 5963 5964 5965 5965 5965 5965 5966 5966 5966 5966 5966 5966 5967
5934 5936 5937 5939 5941 5942 5944 5945 5946 5947 5948 5948 5949 5950 5951 5952 5953 5953 5954 5954 5955 5956 5957 5958 5959 5960 5960 5961 5962 5963 5963 5964 5964 5965 5965 5965 5966 5966 5966 5966 5966 5966
5935 5936 5936 5938 5939 5940 5942 5943 5945 5946 5947 5947 5948 5949 5950 5951 5953 5953 5954 5954 5954 5955 5955 5956 5957 5958 5959 5960 5961 5962 5962 5963 5964 5964 5964 5965 5965 5965 5965 5965 5965 5966
5934 5934 5935 5936 5938 5939 5940 5942 5943 5945 5946 5946 5947 5948 5949 5950 5952 5953 5953 5954 5953 5954 5954 5954 5955 5956 5957 5958 5960 5961 5961 5962 5962 5963 5963 5964 5964 5964 5964 5964 5964 5965
5932 5933 5934 5935 5936 5937 5939 5940 5942 5943 5944 5945 5946 5947 5948 5949 5950 5951 5952 5953 5953 5953 5953 5954 5954 5955 5956 5957 5958 5959 5960 5960 5961 5961 5962 5962 5962 5963 5963 5963 5963 5964
5929 5931 5932 5933 5934 5935 5936 5937 5939 5941 5943 5944 5945 5946 5946 5947 5948 5949 5951 5952 5953 5954 5954 5954 5954 5955 5956 5957 5957 5958 5959 5959 5959 5960 5960 5961 5961 5961 5961 5962 5962 5962
5927 5929 5930 5931 5932 5933 5934 5935 5937 5939 5941 5942 5943 5944 5945 5946 5946 5948 5949 5951 5953 5954 5954 5954 5955 5955 5956 5956 5957 5957 5958 5958 5958 5959 5959 5960 5960 5960 5960 5961 5961 5961
5925 5926 5928 5929 5929 5931 5933 5934 5935 5937 5939 5941 5942 5943 5944 5944 5945 5946 5947 5949 5951 5953 5953 5954 5955 5955 5955 5955 5956 5956 5956 5957 5957 5958 5958 5959 5959 5959 5960 5960 5960 5961
5921 5923 5925 5927 5928 5929 5931 5932 5934 5935 5936 5938 5940 5942 5943 5943 5944 5944 5945 5947 5949 5951 5952 5953 5953 5954 5954 5954 5954 5955 5955 5956 5956 5957 5957 5958 5959 5959 5959 5959 5960 5960
5917 5920 5922 5924 5926 5927 5928 5930 5931 5932 5933 5935 5937 5939 5941 5942 5943 5943 5944 5944 5945 5947 5949 5951 5951 5952 5952 5952 5952 5953 5954 5954 5955 5956 5956 5957 5958 5958 5959 5959 5959 5959
5912 5915 5918 5920 5922 5924 5926 5927 5928 5929 5930 5932 5934 5936 5938 5939 5941 5942 5942 5942 5943 5943 5945 5946 5948 5949 5949 5950 5950 5951 5951 5952 5953 5954 5955 5955 5956 5956 5957 5957 5958 5958
5910 5912 5913 5916 5918 5920 5923 5924 5925 5926 5927 5929 5931 5933 5935 5936 5938 5939 5940 5940 5941 5941 5941 5942 5943 5944 5946 5947 5947 5948 5949 5949 5950 5951 5952 5953 5953 5953 5954 5954 5955 5956
5907 5909 5910 5912 5914 5916 5919 5921 5922 5923 5924 5925 5927 5929 5931 5933 5934 5935 5937 5937 5938 5938 5938 5938 5939 5939 5941 5942 5943 5944 5945 5946 5947 5948 5949 5950 5950 5951 5951 5952 5952 5953
5904 5906 5907 5909 5910 5912 5914 5916 5918 5920 5921 5922 5923 5925 5927 5928 5930 5931 5933 5935 5936 5936 5936 5936 5935 5935 5936 5938 5939 5940 5942 5943 5945 5945 5947 5948 5949 5949 5950 5950 5950 5950
5902 5903 5904 5906 5907 5908 5910 5912 5914 5915 5916 5917 5919 5920 5922 5924 5926 5928 5930 5933 5935 5935 5935 5935 5934 5934 5934 5935 5936 5937 5939 5940 5942 5943 5944 5945 5946 5946 5947 5947 5947 5948
5900 5901 5902 5903 5904 5906 5908 5909 5910 5911 5912 5913 5915 5916 5917 5919 5922 5925 5928 5930 5932 5932 5932 5932 5932 5933 5933 5934 5935 5936 5936 5938 5939 5940 5941 5942 5943 5943 5944 5944 5945 5945
5898 5899 5900 5901 5901 5903 5905 5907 5907 5908 5909 5910 5911 5912 5914 5916 5919 5922 5924 5925 5926 5926 5927 5928 5929 5930 5931 5932 5933 5933 5934 5935 5936 5937 5938 5939 5940 5940 5941 5942 5942 5943
5896 5897 5898 5898 5898 5900 5903 5904 5905 5906 5907 5908 5909 5911 5913 5915 5917 5920 5921 5922 5922 5922 5923 5925 5926 5928 5929 5929 5930 5930 5931 5933 5934 5935 5936 5936 5937 5937 5938 5939 5940 5940
5893 5895 5896 5896 5897 5898 5900 5902 5903 5904 5904 5906 5907 5909 5910 5912 5914 5916 5919 5920 5919 5919 5920 5922 5924 5924 5924 5924 5925 5927 5928 5929 5930 5932 5933 5933 5934 5934 5935 5936 5937 5937
5890 5891 5892 5894 5895 5895 5897 5899 5900 5901 5902 5903 5904 5905 5906 5908 5909 5912 5914 5916 5916 5916 5917 5919 5920 5920 5920 5920 5922 5923 5923 5925 5926 5928 5929 5930 5931 5932 5932 5933 5933 5933
Wind_Speed
15 15 14 14 14 13 13 13 12 12 14 13 12 12 13 12 12 12 12 12 11 10 10 9 9 9 8 8 8 8 9 9 9 9 8 8 8 7 7 6 6 6
14 15 15 15 16 15 14 13 12 13 13 13 13 13 13 13 13 13 13 13 12 11 10 9 9 8 8 8 8 9 9 9 9 9 9 8 8 7 7 7 6 6
14 15 16 16 17 16 15 14 13 13 13 14 14 14 13 14 14 15 14 14 13 12 11 10 9 9 9 9 9 9 10 10 10 9 9 9 8 8 7 7 7 7
16 16 17 17 17 17 16 15 15 14 14 14 14 14 14 15 15 16 15 14 14 13 12 12 11 10 10 10 10 10 10 11 10 10 9 8 8 8 8 8 8 7
18 17 17 17 18 18 17 17 16 15 14 14 15 15 15 16 16 16 16 15 15 14 14 13 12 12 11 11 11 10 10 11 11 10 9 9 8 8 9 9 9 9
20 19 18 18 18 18 19 18 17 16 15 15 16 16 16 16 17 17 17 16 16 15 15 14 13 12 12 11 11 10 10 10 10 10 10 9 9 9 9 9 9 10
23 21 19 19 19 19 20 19 18 18 17 16 16 17 17 17 17 17 17 17 17 17 16 15 14 13 12 11 10 10 10 10 10 10 10 10 10 10 10 10 10 10
24 22 20 19 19 20 20 20 20 19 18 18 18 18 18 18 17 18 18 18 18 18 17 16 15 13 12 11 11 11 11 11 11 11 11 11 11 11 11 11 10 10
22 22 21 20 20 20 20 21 21 20 20 20 19 18 18 18 18 18 18 18 19 19 18 17 16 14 13 12 12 12 12 12 12 12 12 12 12 12 12 12 11 11
22 23 22 21 20 20 21 21 21 21 21 21 20 19 19 19 19 19 19 19 19 19 18 17 16 15 15 14 14 14 14 14 13 13 14 14 14 13 12 12 12 12
23 24 24 23 22 21 21 21 21 21 21 21 20 20 19 19 19 19 19 19 19 19 18 18 17 17 17 16 16 16 16 16 16 16 15 15 15 14 14 14 13 13
23 24 25 25 25 23 23 22 22 21 22 22 21 21 20 19 19 19 19 19 19 19 18 18 18 18 18 18 18 18 18 18 18 18 17 17 16 16 16 16 15 14
24 25 26 27 27 26 24 23 22 22 22 23 22 22 21 20 20 20 20 19 19 19 19 19 18 18 18 18 18 19 18 19 19 19 19 18 17 17 17 17 17 16
26 26 27 28 28 27 25 24 23 22 23 23 23 23 23 23 23 22 21 20 20 20 20 20 19 19 19 19 19 18 18 18 19 19 19 19 18 18 17 17 18 18
28 27 27 28 28 28 28 27 25 24 23 23 24 24 25 25 25 25 24 22 21 21 20 20 20 20 19 19 19 18 18 17 18 18 19 19 18 18 18 18 18 18
30 28 27 28 29 29 29 29 28 27 26 25 25 25 25 26 26 26 26 25 24 23 21 21 21 21 20 20 19 18 17 17 17 17 17 18 18 18 18 19 19 19
32 31 29 29 29 30 30 30 30 30 29 27 27 27 27 27 27 27 27 28 27 26 24 23 22 22 22 21 20 19 18 17 17 16 16 16 17 17 18 18 19 19
32 32 31 30 30 31 30 30 30 31 31 30 29 29 28 27 27 28 29 29 29 28 27 25 25 24 24 23 22 22 21 20 19 18 18 18 18 19 19 19 19 20
31 31 31 32 32 32 32 32 31 31 31 31 31 31 30 29 29 29 30 30 30 30 29 28 27 27 26 26 26 25 24 24 23 23 22 22 22 21 21 22 21 21
28 29 31 32 34 33 33 33 33 32 32 32 33 33 32 32 31 31 31 32 32 31 31 30 30 30 29 29 29 28 27 26 26 25 25 24 24 23 23 24 24 24
26 28 30 32 34 35 35 34 33 33 34 34 34 34 34 34 33 32 32 32 32 32 31 31 31 31 31 31 31 30 30 29 28 28 27 26 26 26 26 26 26 26
20 24 28 30 31 32 32 33 33 34 36 36 35 34 35 35 34 33 32 32 32 33 32 31 31 31 31 31 31 31 31 30 30 30 30 29 29 29 28 28 28 28
17 19 22 25 28 28 28 29 30 31 33 35 35 35 35 35 34 34 34 34 35 35 34 33 31 30 30 30 30 31 31 31 31 31 31 31 31 31 31 30 29 29
21 20 18 18 20 24 26 27 28 30 31 33 34 34 34 34 34 34 35 35 35 36 35 34 32 30 30 31 31 32 32 32 31 31 31 31 32 32 32 31 31 31
27 25 23 20 18 19 23 25 27 29 31 31 32 33 34 35 35 35 35 36 36 36 35 34 32 32 32 33 33 33 33 33 33 32 32 32 32 32 32 31 32 32
29 28 27 25 23 23 24 24 24 25 26 26 27 29 32 34 35 35 34 35 36 37 35 34 34 34 35 35 34 33 34 34 34 34 34 34 33 33 32 32 32 33
Wind_Direction
194 198 199 197 196 197 201 203 196 189 188 183 179 174 168 169 174 179 180 177 183 185 178 176 175 174 174 173 169 167 166 165 166 168 170 169 163 157 155 154 155 160
197 198 201 201 199 197 199 204 203 198 193 188 186 182 175 172 174 179 179 178 183 185 180 180 181 182 183 183 182 177 173 173 174 175 176 176 172 166 164 164 163 170
201 201 204 205 204 200 197 200 203 202 199 194 191 189 182 177 176 179 180 180 183 183 181 182 184 186 189 192 193 189 182 181 183 185 183 180 179 176 175 175 173 175
203 204 206 208 208 205 201 201 203 205 204 202 199 195 189 184 181 181 182 182 184 184 183 186 188 191 195 198 199 197 194 190 190 193 191 187 186 186 185 184 184 184
203 205 207 210 211 209 207 205 206 207 208 206 206 203 198 191 187 186 185 184 186 188 188 190 194 195 198 202 202 202 202 200 199 199 198 197 197 197 197 194 193 194
203 204 206 209 211 212 212 210 209 210 210 208 209 210 207 200 194 191 190 188 188 190 191 193 196 197 199 204 205 205 207 208 208 208 206 206 208 209 210 206 202 203
202 202 203 206 209 212 215 213 212 212 212 211 211 213 214 210 203 198 196 193 192 192 193 194 196 198 200 204 208 210 212 212 213 215 215 215 217 218 220 219 215 213
205 203 202 203 206 211 215 216 215 214 213 213 213 213 216 217 212 207 202 198 195 195 194 194 196 198 201 204 209 214 216 215 216 218 220 222 222 222 224 227 224 222
214 208 205 205 206 209 213 215 217 217 215 215 215 214 217 220 219 216 211 204 200 197 195 195 195 196 200 204 210 217 220 219 219 221 223 225 227 226 227 229 230 229
218 214 209 207 208 210 212 215 217 218 219 218 216 215 217 220 222 222 220 215 209 203 199 197 196 197 200 204 209 216 221 222 222 223 224 227 229 230 230 232 234 234
217 216 213 211 211 211 212 214 217 218 220 221 219 217 217 219 221 223 224 223 219 214 208 202 200 201 202 205 209 214 218 222 223 223 225 227 228 230 231 234 236 236
215 214 215 215 215 214 212 212 215 218 220 221 220 219 217 218 220 224 226 227 226 223 218 212 208 207 207 209 212 215 218 223 225 226 226 226 226 227 230 233 236 237
216 214 216 216 217 217 216 213 214 217 221 222 221 219 217 216 217 221 225 228 228 227 224 221 218 216 215 216 219 220 222 225 229 232 232 231 230 229 230 233 237 239
220 217 216 217 217 217 218 217 216 217 222 225 224 222 218 215 214 216 219 224 228 229 229 227 226 223 222 222 225 227 229 230 233 236 238 237 236 235 234 235 238 241
224 220 218 220 219 217 216 217 216 217 220 225 227 226 223 219 216 214 213 216 221 228 231 232 232 231 229 229 229 231 234 235 238 241 243 244 243 242 241 240 240 241
225 223 221 222 222 220 217 217 217 216 217 221 226 227 226 224 223 220 216 213 213 218 224 231 235 236 235 233 233 234 236 238 241 244 248 251 252 251 250 249 248 247
225 225 224 224 225 223 220 218 218 217 216 219 223 227 228 226 226 225 223 219 215 213 216 222 230 235 235 235 234 235 236 238 241 244 247 251 255 256 256 256 256 255
227 227 226 226 226 225 223 222 220 219 218 219 221 225 228 228 227 227 227 226 223 219 217 218 223 229 233 234 234 234 235 236 237 238 240 242 245 249 251 252 254 254
233 231 230 228 225 224 225 225 225 224 222 221 221 224 227 229 229 229 229 229 227 225 223 221 222 226 230 233 235 236 236 237 238 239 239 239 241 243 246 248 249 249
237 235 232 229 227 225 224 226 229 230 228 225 224 224 226 228 230 231 231 232 231 230 227 225 225 226 228 231 234 236 238 239 241 243 244 245 245 246 247 249 250 250
238 237 235 233 231 228 227 230 232 232 231 229 227 225 226 228 230 232 235 236 236 235 233 232 231 231 231 232 234 236 238 239 241 243 244 245 246 246 246 247 249 250
239 240 238 236 235 233 232 234 235 233 231 230 229 228 228 229 230 232 236 239 240 240 237 236 236 236 237 237 239 240 241 241 242 243 244 245 245 246 247 247 248 249
240 241 239 236 234 232 232 233 233 232 231 230 231 232 232 233 232 232 233 236 239 240 240 239 239 239 240 242 243 244 245 245 245 246 246 247 248 249 250 251 252 252
245 246 245 240 234 228 226 228 231 232 233 233 235 236 237 238 239 237 235 236 238 240 242 244 244 245 246 247 247 248 249 249 250 250 250 250 249 251 253 254 256 256
247 248 247 246 243 235 230 231 233 235 236 237 238 239 239 239 241 240 238 237 238 240 242 244 245 246 248 249 250 251 252 252 252 252 253 253 252 252 253 254 256 258
246 248 246 246 248 247 243 240 238 237 237 239 241 242 242 241 242 241 239 238 239 241 242 243 244 245 247 250 252 254 255 255 255 255 255 255 255 255 255 256 257 258